GUOWANG

导读 | 豆包AI

HULIANWANG DIGUI-112是由中国于2025年12月6日发射的低轨互联网卫星,隶属于中国低轨卫星互联网星座体系,旨在补充、完善全球覆盖的卫星互联网通信网络,为全球各个区域提供高速稳定的宽带互联网接入服务,助力天地一体化信息网络建设,填补地面通信覆盖盲区,推动全球互联信息基础设施发展。

基本信息
目录编号:
66922
目录名称:
HULIANWANG DIGUI-112
国际标识:
2025-285H
轨道中心:
EARTH
卫星名称:
HULIANWANG DIGUI-112
卫星全名:
GUOWANG
卫星状态:
在轨 (已飞行170 天)
发射日期:
2025-12-06 UTC
国别 :
中国 (CN)
星等 :
--
轨道信息
数据来源 国际轨道数据 AOE轨道数据
星历时间 2026-05-24T07:38:12+0800
1天前
查看轨道信息
2026-05-22T05:00:00+0800
3天前
查看轨道信息
半长轴 7527.448km 7527.44km
偏心率 0.0001059 0.0001626
轨道倾角 50.008° 50.009°
近地点辐角 207.578° 168.106°
升交点赤经 232.557° 240.126°
平近点角 152.504° 168.829°
近地点 1148.513km 1148.079km
远地点 1150.109km 1150.527km
周期 108.326分钟 108.325分钟
每日圈数 13.29325 13.293272
详细信息
使用方式:
暂无
2D轨道图
3D轨道图
轨道高度分析图
轨道倾角分析图
轨道综合分析图
查看轨道综合分析图